[[{"header":{"parameterUnit":"m.s-1","parameterCategory":1,"la1":30.2991,"la2":30.254,"lo1":-89.0895,"lo2":-89.0444,"dy":0.0017,"dx":0.0017,"nx":28,"ny":28,"refTime":"2025-04-07T09:00:00:Z","depth":0,"parameterNumber":2,"parameterNumberName":"U-component_of_WINDS"},"data":[0,0,0,0,0,0,0,0,0,0,0,0,0,0,0,0,0,0,0,0,0,0,0,0,0,0,0,0,0,0,0,0,0,0,0,0,0,0,0,0,0,0,0,0,0,0,0,0,0,0,0,0,0,0,0,0,0,0,-1.3643,-1.3645,0,-1.3916,-1.3919,-1.3922,-1.398,-1.3978,-1.3976,-1.3974,-1.4258,-1.4267,-1.4277,0,0,0,0,0,0,0,0,0,0,0,0,0,-1.3175,-1.3184,-1.3642,-1.3646,-1.3649,-1.3915,-1.3919,-1.3923,-1.398,-1.3977,-1.3975,-1.3973,-1.4255,-1.4266,-1.4278,0,0,0,0,0,0,0,0,0,0,0,0,0,-1.3406,-1.3186,-1.3642,-1.371,-1.3718,-1.3914,-1.3919,-1.3924,-1.398,-1.3977,-1.3974,-1.3972,-1.4251,-1.4265,-1.4279,-1.4428,0,0,-1.4322,-1.4329,0,0,0,0,0,0,0,0,-1.3393,-1.3423,-1.3696,-1.3705,-1.3716,-1.391,-1.3859,-1.4093,-1.3981,-1.3881,-1.3974,-1.397,-1.4145,-1.4168,-1.4226,-1.4441,-1.4453,-1.4324,-1.4332,-1.4338,-1.4342,0,0,0,0,0,0,0,-1.3377,-1.3412,-1.3751,-1.37,-1.3712,-1.3728,-1.3758,-1.3903,-1.4027,-1.389,-1.3894,-1.3926,-1.415,-1.4212,-1.4233,-1.4458,-1.4323,-1.4336,-1.4345,-1.435,-1.481,-1.4813,0,0,0,0,0,0,-1.3348,-1.3398,-1.3742,-1.3759,-1.3543,-1.3739,-1.3772,-1.3851,-1.4026,-1.4049,-1.3928,-1.3927,-1.4189,-1.4216,-1.4243,-1.443,-1.4338,-1.4352,-1.436,-1.4806,-1.4811,-1.4815,0,0,0,0,0,0,-1.3338,-1.3378,-1.3731,-1.358,-1.3626,-1.375,-1.3839,-1.3858,-1.392,-1.4055,-1.4077,-1.3969,-1.4188,-1.4223,-1.4382,-1.444,-1.4358,-1.4371,-1.4802,-1.4808,-1.4813,-1.4803,0,0,0,0,0,0,-1.3324,-1.3374,-1.3431,-1.3581,-1.3634,-1.3863,-1.3842,-1.3865,-1.3944,-1.3946,-1.4099,-1.4121,-1.4188,-1.436,-1.4396,-1.4458,-1.4382,-1.4797,-1.4804,-1.4811,-1.4798,-1.4807,-1.4815,0,0,0,0,0,-1.3308,-1.3418,-1.3434,-1.3475,-1.3707,-1.3866,-1.3897,-1.397,-1.3948,-1.4007,-1.4094,-1.4116,-1.4428,-1.4376,-1.4416,-1.4484,-1.4794,-1.4802,-1.481,-1.4795,-1.4805,-1.4815,0,0,0,0,0,0,-1.3274,-1.3439,-1.3458,-1.362,-1.3728,-1.3875,-1.3952,-1.3979,-1.4097,-1.4094,-1.4182,-1.4216,-1.4369,-1.4443,-1.4382,-1.4638,-1.461,-1.4627,-1.4584,-1.4596,-1.4604,-1.4583,-1.4394,0,0,0,0,0,-1.3285,-1.3399,-1.3538,-1.3668,-1.3721,-1.3827,-1.3899,-1.3946,-1.4063,-1.4109,-1.4207,-1.4321,-1.4445,-1.4524,-1.4645,-1.4809,-1.4844,-1.4876,-1.4884,-1.489,-1.4904,-1.4997,-1.5013,-1.4842,-1.4842,-1.4842,0,0,-1.331,-1.3414,-1.3481,-1.3663,-1.3753,-1.387,-1.3865,-1.399,-1.4078,-1.4129,-1.4284,-1.436,-1.4492,-1.4654,-1.473,-1.472,-1.4959,-1.4901,-1.4905,-1.4915,-1.5007,-1.5023,-1.5037,-1.4848,-1.4847,-1.4846,0,0,-1.3415,-1.3505,-1.3623,-1.3712,-1.3847,-1.3917,-1.3945,-1.4089,-1.4141,-1.4297,-1.4338,-1.4445,-1.4656,-1.4749,-1.4824,-1.4964,-1.499,-1.5002,-1.5045,-1.5134,-1.5147,-1.516,-1.521,-1.5227,-1.5015,-1.5015,-1.5015,0,-1.3429,-1.3606,-1.368,-1.3803,-1.3883,-1.3932,-1.4053,-1.4137,-1.4306,-1.436,-1.4346,-1.4612,-1.4705,-1.4889,-1.4923,-1.4982,-1.5018,-1.4985,-1.5139,-1.5152,-1.5165,-1.5214,-1.5233,-1.5015,-1.5015,-1.5015,-1.5015,0,-1.3617,-1.3739,-1.3819,-1.3978,-1.4067,-1.4188,-1.4282,-1.4363,-1.4403,-1.4475,-1.4634,-1.4747,-1.4892,-1.4939,-1.498,-1.513,-1.512,-1.5121,-1.5095,-1.518,-1.5228,-1.5248,-1.5016,-1.5016,-1.5016,-1.5015,0,0,-1.3708,-1.3907,-1.3935,-1.4008,-1.4161,-1.4258,-1.4382,-1.4522,-1.459,-1.4705,-1.4812,-1.4989,-1.4992,-1.5077,-1.5128,-1.5207,-1.5311,-1.5199,-1.5204,-1.5216,-1.5484,-1.5481,-1.5502,-1.5329,-1.5333,-1.5336,-1.5473,0,-1.3832,-1.4053,-1.4124,-1.4309,-1.4423,-1.4473,-1.4581,-1.4687,-1.4758,-1.4866,-1.4945,-1.5069,-1.5063,-1.5115,-1.5194,-1.5281,-1.5366,-1.5273,-1.543,-1.5435,-1.5395,-1.5527,-1.5525,-1.5649,-1.5492,-1.5495,-1.5498,0,-1.4006,-1.4121,-1.4317,-1.4456,-1.4506,-1.4602,-1.4737,-1.4839,-1.4962,-1.5008,-1.5102,-1.5147,-1.5281,-1.5246,-1.5432,-1.5366,-1.5435,-1.5488,-1.5495,-1.5512,-1.5471,-1.5548,-1.569,-1.5708,-1.5528,-1.5525,-1.5523,0,-1.4053,-1.4258,-1.4402,-1.4463,-1.4628,-1.4694,-1.4766,-1.4885,-1.4965,-1.5083,-1.5136,-1.5269,-1.5342,-1.5444,-1.5525,-1.5492,-1.5703,-1.5675,-1.5746,-1.5744,-1.5788,-1.5784,-1.5942,-1.5832,-1.5832,-1.5831,-1.5831,0,-1.4183,-1.4301,-1.4425,-1.4513,-1.4647,-1.4728,-1.4859,-1.4935,-1.504,-1.5145,-1.5197,-1.5294,-1.5395,-1.5506,-1.5571,-1.5714,-1.5747,-1.5789,-1.5804,-1.5784,-1.5779,-1.583,-1.5824,-1.5837,-1.5835,-1.5834,-1.5834,0,-1.4258,-1.4346,-1.4506,-1.4649,-1.4687,-1.478,-1.4903,-1.4992,-1.5064,-1.5196,-1.5232,-1.5347,-1.548,-1.5571,-1.5743,-1.5786,-1.5942,-1.5956,-1.59,-1.5908,-1.5973,-1.5965,-1.617,-1.6201,-1.607,-1.6071,-1.6072,0,-1.4336,-1.4428,-1.458,-1.4653,-1.4725,-1.4842,-1.4924,-1.5008,-1.5091,-1.5237,-1.5308,-1.5445,-1.5559,-1.5771,-1.587,-1.6002,-1.602,-1.6083,-1.604,-1.6017,-1.6021,-1.6014,-1.6024,-1.6089,-1.609,-1.6091,-1.6092,0,-1.4464,-1.4503,-1.4617,-1.4747,-1.4842,-1.4949,-1.5056,-1.5114,-1.5217,-1.5308,-1.5444,-1.5532,-1.5707,-1.5843,-1.5984,-1.6061,-1.6094,-1.6104,-1.6127,-1.6107,-1.6071,-1.6091,-1.5918,-1.6099,-1.6098,-1.6098,-1.6097,-1.6097,-1.4543,-1.4627,-1.4747,-1.4873,-1.4962,-1.5061,-1.5151,-1.5234,-1.5349,-1.5496,-1.554,-1.5682,-1.5803,-1.5996,-1.6075,-1.6188,-1.6182,-1.6216,-1.6225,-1.6232,-1.6231,-1.6053,-1.6214,-1.6214,-1.6214,-1.6214,-1.6214,0,-1.4674,-1.4753,-1.4868,-1.5016,-1.5115,-1.5136,-1.5256,-1.5338,-1.5462,-1.5571,-1.5682,-1.5839,-1.5971,-1.6081,-1.6217,-1.6287,-1.6306,-1.632,-1.6316,-1.6333,-1.6229,-1.6195,-1.6303,-1.6303,-1.6303,-1.6303,-1.6303,-1.6303,-1.4753,-1.4896,-1.4949,-1.5137,-1.5216,-1.5354,-1.5421,-1.5513,-1.5601,-1.5773,-1.5882,-1.5952,-1.6063,-1.6208,-1.633,-1.6359,-1.6407,-1.6418,-1.645,-1.635,-1.634,-1.6331,-1.6299,-1.6427,-1.6428,-1.6545,-1.6546,-1.6547]},{"header":{"parameterUnit":"m.s-1","parameterCategory":1,"la1":30.2991,"la2":30.254,"lo1":-89.0895,"lo2":-89.0444,"dy":0.0017,"dx":0.0017,"nx":28,"ny":28,"refTime":"2025-04-07T09:00:00:Z","depth":0,"parameterNumber":3,"parameterNumberName":"V-component_of_WINDS"},"data":[0,0,0,0,0,0,0,0,0,0,0,0,0,0,0,0,0,0,0,0,0,0,0,0,0,0,0,0,0,0,0,0,0,0,0,0,0,0,0,0,0,0,0,0,0,0,0,0,0,0,0,0,0,0,0,0,0,0,-4.1196,-4.1196,0,-4.1211,-4.1211,-4.1211,-4.1114,-4.1112,-4.1109,-4.1106,-4.1122,-4.1125,-4.1128,0,0,0,0,0,0,0,0,0,0,0,0,0,-4.1083,-4.1086,-4.1196,-4.1196,-4.1196,-4.1211,-4.1211,-4.1211,-4.1115,-4.1112,-4.1108,-4.1105,-4.1121,-4.1125,-4.1128,0,0,0,0,0,0,0,0,0,0,0,0,0,-4.1119,-4.1087,-4.1196,-4.115,-4.1146,-4.1211,-4.1211,-4.1211,-4.1116,-4.1112,-4.1107,-4.1104,-4.112,-4.1124,-4.1129,-4.1239,0,0,-4.1143,-4.1144,0,0,0,0,0,0,0,0,-4.1117,-4.1123,-4.1157,-4.1153,-4.1149,-4.1157,-4.1177,-4.122,-4.1117,-4.1127,-4.1106,-4.1102,-4.1137,-4.114,-4.1152,-4.1239,-4.124,-4.1143,-4.1146,-4.1148,-4.1149,0,0,0,0,0,0,0,-4.1115,-4.1122,-4.1202,-4.1157,-4.1153,-4.1128,-4.1129,-4.1185,-4.1155,-4.1126,-4.1119,-4.1122,-4.1134,-4.1148,-4.1151,-4.124,-4.1143,-4.1147,-4.1149,-4.1151,-4.1416,-4.142,0,0,0,0,0,0,-4.1118,-4.112,-4.1201,-4.1202,-4.1123,-4.1134,-4.1134,-4.1158,-4.1154,-4.115,-4.1126,-4.1118,-4.1142,-4.1146,-4.1152,-4.1278,-4.1147,-4.1152,-4.1154,-4.1411,-4.1417,-4.1421,0,0,0,0,0,0,-4.1116,-4.1126,-4.1201,-4.1159,-4.1167,-4.114,-4.1168,-4.1161,-4.1174,-4.1154,-4.1148,-4.1145,-4.1139,-4.1145,-4.1217,-4.1277,-4.1154,-4.1158,-4.1406,-4.1413,-4.1419,-4.1533,0,0,0,0,0,0,-4.1113,-4.1126,-4.1168,-4.1161,-4.117,-4.1267,-4.1172,-4.1164,-4.1182,-4.1172,-4.117,-4.1166,-4.1136,-4.1211,-4.1221,-4.1281,-4.1161,-4.1401,-4.1409,-4.1417,-4.1524,-4.1542,-4.1559,0,0,0,0,0,-4.111,-4.1201,-4.1171,-4.1181,-4.1222,-4.1271,-4.1275,-4.1239,-4.1187,-4.1229,-4.1215,-4.1166,-4.1269,-4.1219,-4.123,-4.1292,-4.1397,-4.1407,-4.1416,-4.1516,-4.1539,-4.1558,0,0,0,0,0,0,-4.1217,-4.1199,-4.1166,-4.1257,-4.1266,-4.1254,-4.1305,-4.1265,-4.1289,-4.1278,-4.1232,-4.1232,-4.1312,-4.1309,-4.1254,-4.1396,-4.1324,-4.1336,-4.1395,-4.1417,-4.1434,-4.1433,-4.1165,0,0,0,0,0,-4.125,-4.1292,-4.1274,-4.1356,-4.1362,-4.1333,-4.1353,-4.1324,-4.1332,-4.1335,-4.1327,-4.1336,-4.137,-4.1393,-4.1424,-4.1522,-4.152,-4.157,-4.1588,-4.1602,-4.1614,-4.1664,-4.1685,-4.1453,-4.1453,-4.1453,0,0,-4.1322,-4.1317,-4.1346,-4.1377,-4.1381,-4.1424,-4.1337,-4.1387,-4.1418,-4.1343,-4.1409,-4.1404,-4.1411,-4.1496,-4.1533,-4.1496,-4.1677,-4.1615,-4.1627,-4.163,-4.1676,-4.1698,-4.1718,-4.146,-4.1459,-4.1458,0,0,-4.1473,-4.1474,-4.1541,-4.1546,-4.1552,-4.1531,-4.1548,-4.1542,-4.1534,-4.16,-4.1544,-4.158,-4.164,-4.1647,-4.1658,-4.1809,-4.1764,-4.182,-4.1912,-4.1961,-4.1979,-4.1995,-4.2048,-4.2067,-4.1832,-4.1832,-4.1832,0,-4.156,-4.1623,-4.1581,-4.1634,-4.1649,-4.1581,-4.1648,-4.1655,-4.1671,-4.1682,-4.164,-4.1713,-4.1713,-4.1798,-4.1834,-4.1846,-4.1862,-4.182,-4.198,-4.1996,-4.201,-4.2059,-4.2079,-4.1839,-4.1838,-4.1837,-4.1836,0,-4.173,-4.1774,-4.1828,-4.1843,-4.1864,-4.1924,-4.189,-4.1916,-4.1885,-4.1869,-4.1936,-4.1933,-4.1961,-4.1979,-4.1949,-4.2059,-4.2036,-4.1988,-4.1914,-4.2039,-4.2085,-4.2104,-4.1848,-4.1846,-4.1844,-4.1842,0,0,-4.1951,-4.194,-4.196,-4.1965,-4.1965,-4.1999,-4.2055,-4.2081,-4.2103,-4.2116,-4.2161,-4.2212,-4.2167,-4.218,-4.215,-4.2194,-4.2311,-4.214,-4.2139,-4.2171,-4.243,-4.2466,-4.2489,-4.2282,-4.2285,-4.2288,-4.2429,0,-4.2097,-4.2192,-4.2154,-4.2252,-4.2292,-4.2226,-4.2275,-4.228,-4.2266,-4.2297,-4.2281,-4.2318,-4.2256,-4.2263,-4.2303,-4.2289,-4.2363,-4.2278,-4.2323,-4.2325,-4.2323,-4.2513,-4.2551,-4.2685,-4.2447,-4.245,-4.2452,0,-4.2281,-4.2299,-4.2401,-4.2391,-4.2407,-4.2451,-4.247,-4.2501,-4.2505,-4.2491,-4.2505,-4.2465,-4.2518,-4.2444,-4.2517,-4.246,-4.2476,-4.2471,-4.2475,-4.2478,-4.2396,-4.252,-4.2727,-4.2747,-4.248,-4.2478,-4.2476,0,-4.243,-4.248,-4.2547,-4.2553,-4.2545,-4.2577,-4.2575,-4.2574,-4.2591,-4.2609,-4.2619,-4.2643,-4.2656,-4.2675,-4.2642,-4.2591,-4.2719,-4.2642,-4.2708,-4.2709,-4.2738,-4.2737,-4.295,-4.275,-4.275,-4.2749,-4.2749,0,-4.2597,-4.2662,-4.2613,-4.2654,-4.2724,-4.2679,-4.2749,-4.274,-4.274,-4.2777,-4.2723,-4.2759,-4.2713,-4.2745,-4.272,-4.2783,-4.279,-4.278,-4.2772,-4.2784,-4.2786,-4.2794,-4.2784,-4.2754,-4.2753,-4.2752,-4.2751,0,-4.2776,-4.2746,-4.2814,-4.2799,-4.2797,-4.2849,-4.2836,-4.2873,-4.2854,-4.2902,-4.291,-4.2881,-4.2916,-4.2884,-4.2918,-4.29,-4.2984,-4.2964,-4.2983,-4.2977,-4.3044,-4.3038,-4.327,-4.3298,-4.3081,-4.3083,-4.3085,0,-4.2885,-4.2932,-4.2922,-4.2942,-4.2943,-4.2977,-4.2994,-4.2952,-4.2971,-4.2977,-4.3014,-4.3043,-4.3064,-4.3122,-4.3104,-4.3129,-4.3108,-4.3187,-4.3111,-4.3121,-4.3107,-4.3105,-4.3109,-4.3203,-4.3205,-4.3207,-4.3209,0,-4.308,-4.3062,-4.3088,-4.3108,-4.3129,-4.3143,-4.3153,-4.3173,-4.3129,-4.3154,-4.3188,-4.3204,-4.3237,-4.3266,-4.3285,-4.3282,-4.3239,-4.3233,-4.3249,-4.3262,-4.3271,-4.3266,-4.3024,-4.3228,-4.3226,-4.3225,-4.3224,-4.3223,-4.3226,-4.3265,-4.3262,-4.3292,-4.3294,-4.3304,-4.3337,-4.3322,-4.3349,-4.3371,-4.3345,-4.3386,-4.3386,-4.3406,-4.3409,-4.344,-4.3407,-4.3431,-4.3437,-4.3443,-4.3452,-4.3266,-4.3443,-4.3443,-4.3442,-4.3442,-4.3441,0,-4.3418,-4.3412,-4.344,-4.3454,-4.3478,-4.3433,-4.3441,-4.3463,-4.3499,-4.3503,-4.3524,-4.3562,-4.359,-4.3573,-4.3597,-4.3625,-4.3605,-4.3632,-4.363,-4.363,-4.3481,-4.3464,-4.3648,-4.3648,-4.3648,-4.3648,-4.3648,-4.3648,-4.352,-4.3582,-4.3563,-4.3625,-4.3619,-4.3658,-4.3666,-4.3674,-4.3676,-4.3721,-4.3743,-4.3731,-4.3726,-4.3749,-4.3772,-4.3766,-4.3777,-4.3811,-4.3799,-4.3661,-4.364,-4.3621,-4.3604,-4.3814,-4.3815,-4.3944,-4.3945,-4.3946]}]]